KLJ6435 LFPG-EDDM

Flight info

Callsign KLJ6435
Flight time 1h 10m
Altitude 33000
Route LANVI DCT LUPEN/N0425F270 T107 ROKIL ROKIL1B
Aircraft B738/M-SDE2E3FGHIRWXY/LB1

Departure

Time 2026-05-05 14:17
Airport Charles de Gaulle International Airport (LFPG)

Arrival

Time 2026-05-05 15:27
Airport Munich Airport (EDDM)
Time Latitude Longitude Altitude Speed Heading
2026-05-05 13:33 49.01137 2.53714 359 ft 0 kts 210°
2026-05-05 14:03 49.01144 2.53720 353 ft 4 kts 210°
2026-05-05 14:03 49.01166 2.53740 357 ft 4 kts 220°
2026-05-05 14:03 49.01181 2.53771 353 ft 4 kts 263°
2026-05-05 14:03 49.01178 2.53800 353 ft 1 kts 304°
2026-05-05 14:04 49.01178 2.53801 360 ft 0 kts 304°
2026-05-05 14:08 49.01179 2.53799 361 ft 2 kts 304°
2026-05-05 14:08 49.01193 2.53767 357 ft 5 kts 304°
2026-05-05 14:08 49.01218 2.53722 357 ft 6 kts 316°
2026-05-05 14:09 49.01254 2.53684 360 ft 7 kts 329°
2026-05-05 14:09 49.01300 2.53650 359 ft 8 kts 337°
2026-05-05 14:09 49.01356 2.53620 360 ft 10 kts 345°
2026-05-05 14:09 49.01436 2.53606 361 ft 13 kts
2026-05-05 14:10 49.01523 2.53617 356 ft 13 kts 353°
2026-05-05 14:10 49.01617 2.53603 353 ft 15 kts 354°
2026-05-05 14:10 49.01726 2.53586 357 ft 16 kts 354°
2026-05-05 14:10 49.01782 2.53523 353 ft 9 kts 279°
2026-05-05 14:11 49.01773 2.53429 356 ft 9 kts 258°
2026-05-05 14:11 49.01766 2.53337 360 ft 9 kts 265°
2026-05-05 14:11 49.01761 2.53248 358 ft 8 kts 265°
2026-05-05 14:11 49.01756 2.53161 362 ft 8 kts 265°
2026-05-05 14:12 49.01752 2.53075 355 ft 8 kts 265°
2026-05-05 14:12 49.01748 2.52992 357 ft 8 kts 265°
2026-05-05 14:12 49.01744 2.52911 353 ft 8 kts 266°
2026-05-05 14:12 49.01740 2.52831 359 ft 8 kts 266°
2026-05-05 14:13 49.01735 2.52733 355 ft 11 kts 264°
2026-05-05 14:13 49.01727 2.52601 358 ft 14 kts 265°
2026-05-05 14:13 49.01717 2.52441 360 ft 16 kts 264°
2026-05-05 14:13 49.01707 2.52257 353 ft 18 kts 267°
2026-05-05 14:14 49.01727 2.52164 355 ft 14 kts 321°
2026-05-05 14:14 49.01827 2.52131 354 ft 15 kts 355°
2026-05-05 14:14 49.01923 2.52120 357 ft 8 kts 359°
2026-05-05 14:14 49.01982 2.52111 358 ft 10 kts 357°
2026-05-05 14:15 49.01995 2.52110 360 ft 0 kts 358°
2026-05-05 14:15 49.02004 2.52110 360 ft 4 kts 358°
2026-05-05 14:15 49.02056 2.52108 354 ft 11 kts
2026-05-05 14:16 49.02113 2.52203 354 ft 16 kts 81°
2026-05-05 14:16 49.02125 2.52465 358 ft 50 kts 86°
2026-05-05 14:16 49.02172 2.53325 355 ft 112 kts 85°
2026-05-05 14:16 49.02247 2.54776 371 ft 159 kts 84°
2026-05-05 14:17 49.02318 2.56576 781 ft 175 kts 84°
2026-05-05 14:17 49.02419 2.58570 1200 ft 194 kts 81°
2026-05-05 14:17 49.02548 2.60558 2082 ft 187 kts 81°
2026-05-05 14:17 49.02687 2.62487 3208 ft 175 kts 82°
2026-05-05 14:18 49.02812 2.64357 4175 ft 182 kts 85°
2026-05-05 14:18 49.02925 2.66366 4825 ft 202 kts 86°
2026-05-05 14:18 49.03014 2.68528 5400 ft 214 kts 86°
2026-05-05 14:18 49.03123 2.70937 5654 ft 241 kts 86°
2026-05-05 14:19 49.03243 2.73532 6225 ft 249 kts 86°
2026-05-05 14:19 49.03367 2.76191 6887 ft 253 kts 86°
2026-05-05 14:19 49.03494 2.78878 7558 ft 256 kts 86°
2026-05-05 14:19 49.03625 2.81612 8201 ft 261 kts 86°
2026-05-05 14:20 49.03757 2.84357 8867 ft 264 kts 86°
2026-05-05 14:20 49.03890 2.87143 9561 ft 268 kts 86°
2026-05-05 14:20 49.04026 2.90028 10084 ft 283 kts 86°
2026-05-05 14:20 49.04172 2.93186 10304 ft 313 kts 87°
2026-05-05 14:21 49.03953 2.96631 10542 ft 340 kts 103°
2026-05-05 14:21 49.03340 3.00176 11081 ft 354 kts 106°
2026-05-05 14:21 49.02671 3.03825 11896 ft 359 kts 106°
2026-05-05 14:21 49.02003 3.07502 12789 ft 362 kts 106°
2026-05-05 14:22 49.01342 3.11220 13642 ft 365 kts 105°
2026-05-05 14:22 49.00686 3.14980 14449 ft 369 kts 105°
2026-05-05 14:22 49.00030 3.18781 15239 ft 373 kts 105°
2026-05-05 14:22 48.99372 3.22621 16009 ft 377 kts 105°
2026-05-05 14:23 48.98707 3.26502 16759 ft 381 kts 105°
2026-05-05 14:23 48.98036 3.30419 17470 ft 385 kts 105°
2026-05-05 14:23 48.97363 3.34348 18173 ft 388 kts 105°
2026-05-05 14:23 48.96670 3.38378 18863 ft 392 kts 105°
2026-05-05 14:24 48.95978 3.42393 19546 ft 394 kts 105°
2026-05-05 14:24 48.95279 3.46446 20176 ft 398 kts 106°
2026-05-05 14:24 48.94570 3.50536 20780 ft 402 kts 106°
2026-05-05 14:24 48.93858 3.54667 21374 ft 405 kts 105°
2026-05-05 14:25 48.93385 3.58849 21928 ft 410 kts 98°
2026-05-05 14:25 48.93144 3.63206 22481 ft 414 kts 95°
2026-05-05 14:25 48.92979 3.67592 23023 ft 417 kts 95°
2026-05-05 14:25 48.92816 3.71996 23533 ft 420 kts 95°
2026-05-05 14:26 48.92626 3.76520 24050 ft 423 kts 96°
2026-05-05 14:26 48.92417 3.80912 24533 ft 426 kts 96°
2026-05-05 14:26 48.92182 3.85471 25011 ft 428 kts 97°
2026-05-05 14:26 48.91940 3.89928 25460 ft 431 kts 97°
2026-05-05 14:27 48.91689 3.94466 25888 ft 434 kts 97°
2026-05-05 14:27 48.91436 3.98989 26299 ft 437 kts 97°
2026-05-05 14:27 48.91173 4.03673 26712 ft 440 kts 98°
2026-05-05 14:27 48.90915 4.08252 27080 ft 443 kts 98°
2026-05-05 14:28 48.90651 4.12926 27474 ft 445 kts 98°
2026-05-05 14:28 48.90384 4.17615 27855 ft 448 kts 98°
2026-05-05 14:28 48.89992 4.22325 28195 ft 447 kts 107°
2026-05-05 14:28 48.88807 4.26641 28531 ft 442 kts 122°
2026-05-05 14:29 48.87279 4.30700 28938 ft 443 kts 122°
2026-05-05 14:29 48.85743 4.34777 29265 ft 445 kts 122°
2026-05-05 14:29 48.84212 4.38866 29565 ft 448 kts 122°
2026-05-05 14:29 48.82675 4.42997 29948 ft 448 kts 122°
2026-05-05 14:30 48.81155 4.47107 30432 ft 445 kts 122°
2026-05-05 14:30 48.79650 4.51192 30918 ft 442 kts 122°
2026-05-05 14:30 48.78157 4.55244 31316 ft 441 kts 122°
2026-05-05 14:30 48.76667 4.59286 31692 ft 440 kts 122°
2026-05-05 14:31 48.75186 4.63298 32128 ft 438 kts 122°
2026-05-05 14:31 48.73699 4.67323 32514 ft 437 kts 122°
2026-05-05 14:31 48.72215 4.71330 32874 ft 436 kts 123°
2026-05-05 14:31 48.70738 4.75312 33243 ft 435 kts 123°
2026-05-05 14:32 48.69267 4.79269 33632 ft 433 kts 123°
2026-05-05 14:32 48.67792 4.83231 34047 ft 431 kts 123°
2026-05-05 14:32 48.66323 4.87174 34369 ft 431 kts 123°
2026-05-05 14:32 48.64865 4.91076 34581 ft 433 kts 123°
2026-05-05 14:33 48.63363 4.95092 34783 ft 435 kts 123°
2026-05-05 14:33 48.61869 4.99083 35057 ft 435 kts 123°
2026-05-05 14:33 48.60395 5.03012 35315 ft 436 kts 123°
2026-05-05 14:33 48.58893 5.07012 35560 ft 437 kts 123°
2026-05-05 14:34 48.57393 5.11000 35797 ft 438 kts 123°
2026-05-05 14:34 48.55888 5.14995 36015 ft 439 kts 123°
2026-05-05 14:34 48.54375 5.19005 36225 ft 440 kts 123°
2026-05-05 14:34 48.52854 5.23028 36413 ft 442 kts 123°
2026-05-05 14:35 48.51333 5.27047 36625 ft 442 kts 123°
2026-05-05 14:35 48.49807 5.31077 36861 ft 441 kts 123°
2026-05-05 14:35 48.46765 5.39089 36865 ft 437 kts 123°
2026-05-05 14:36 48.43765 5.46966 36868 ft 432 kts 123°
2026-05-05 14:36 48.40770 5.54801 36875 ft 432 kts 123°
2026-05-05 14:37 48.37763 5.62646 36861 ft 433 kts 123°
2026-05-05 14:37 48.34750 5.70493 36858 ft 433 kts 123°
2026-05-05 14:38 48.31921 5.78488 36817 ft 440 kts 109°
2026-05-05 14:38 48.31414 5.83031 36849 ft 446 kts 94°
2026-05-05 14:38 48.31613 5.87720 36865 ft 449 kts 87°
2026-05-05 14:39 48.32331 5.97023 36843 ft 451 kts 86°
2026-05-05 14:39 48.33062 6.06408 36833 ft 452 kts 87°
2026-05-05 14:40 48.33743 6.15825 36836 ft 452 kts 88°
2026-05-05 14:40 48.34389 6.25228 36830 ft 453 kts 88°
2026-05-05 14:41 48.35025 6.34655 36838 ft 453 kts 88°
2026-05-05 14:41 48.35652 6.44102 36826 ft 454 kts 88°
2026-05-05 14:42 48.36277 6.53543 36835 ft 454 kts 88°
2026-05-05 14:42 48.36889 6.62928 36834 ft 455 kts 88°
2026-05-05 14:43 48.37495 6.72363 36831 ft 454 kts 88°
2026-05-05 14:43 48.38084 6.81628 36834 ft 453 kts 88°
2026-05-05 14:44 48.38675 6.91063 36840 ft 453 kts 88°
2026-05-05 14:44 48.39258 7.00513 36815 ft 453 kts 89°
2026-05-05 14:45 48.39836 7.09986 36833 ft 453 kts 89°
2026-05-05 14:45 48.40403 7.19423 36836 ft 453 kts 89°
2026-05-05 14:46 48.40963 7.28882 36834 ft 453 kts 89°
2026-05-05 14:46 48.41516 7.38332 36828 ft 454 kts 89°
2026-05-05 14:47 48.42059 7.47730 36829 ft 454 kts 89°
2026-05-05 14:47 48.42597 7.57207 36834 ft 454 kts 89°
2026-05-05 14:48 48.43132 7.66732 36826 ft 454 kts 89°
2026-05-05 14:48 48.43623 7.75940 36838 ft 453 kts 90°
2026-05-05 14:49 48.43854 7.85323 36833 ft 452 kts 92°
2026-05-05 14:49 48.43990 7.94635 36836 ft 452 kts 92°
2026-05-05 14:50 48.44148 8.04095 36831 ft 453 kts 92°
2026-05-05 14:50 48.44322 8.13575 36832 ft 453 kts 92°
2026-05-05 14:51 48.44496 8.23065 36835 ft 453 kts 92°
2026-05-05 14:51 48.44664 8.32508 36830 ft 453 kts 92°
2026-05-05 14:52 48.44821 8.41825 36828 ft 453 kts 92°
2026-05-05 14:52 48.44972 8.51319 36832 ft 453 kts 92°
2026-05-05 14:53 48.45114 8.60818 36840 ft 453 kts 92°
2026-05-05 14:53 48.45251 8.70306 36843 ft 454 kts 92°
2026-05-05 14:54 48.45378 8.79762 36838 ft 454 kts 92°
2026-05-05 14:54 48.45498 8.89223 36849 ft 455 kts 93°
2026-05-05 14:55 48.45611 8.98746 36854 ft 455 kts 93°
2026-05-05 14:55 48.45715 9.08281 36850 ft 456 kts 93°
2026-05-05 14:56 48.45810 9.17629 36852 ft 457 kts 93°
2026-05-05 14:56 48.45900 9.27116 36854 ft 458 kts 93°
2026-05-05 14:57 48.45984 9.36689 36631 ft 462 kts 93°
2026-05-05 14:57 48.46021 9.41519 36092 ft 463 kts 93°
2026-05-05 14:57 48.46057 9.46366 35448 ft 462 kts 94°
2026-05-05 14:58 48.46080 9.49556 34991 ft 462 kts 94°
2026-05-05 14:58 48.46113 9.54405 34282 ft 463 kts 94°
2026-05-05 14:58 48.46144 9.59229 33583 ft 464 kts 94°
2026-05-05 14:58 48.46174 9.64066 32832 ft 464 kts 94°
2026-05-05 14:59 48.46200 9.68899 32062 ft 465 kts 94°
2026-05-05 14:59 48.46224 9.73696 31375 ft 464 kts 94°
2026-05-05 14:59 48.46245 9.78545 30605 ft 463 kts 93°
2026-05-05 14:59 48.46265 9.83393 30078 ft 457 kts 93°
2026-05-05 15:00 48.46283 9.88146 29494 ft 453 kts 93°
2026-05-05 15:00 48.46298 9.92849 28902 ft 448 kts 93°
2026-05-05 15:00 48.46311 9.97532 28303 ft 444 kts 93°
2026-05-05 15:00 48.46322 10.02150 27728 ft 439 kts 93°
2026-05-05 15:01 48.46331 10.06705 27156 ft 435 kts 93°
2026-05-05 15:01 48.46338 10.11220 26584 ft 431 kts 93°
2026-05-05 15:01 48.46343 10.15697 26018 ft 427 kts 93°
2026-05-05 15:01 48.46346 10.20158 25452 ft 423 kts 94°
2026-05-05 15:02 48.46348 10.24472 24900 ft 420 kts 93°
2026-05-05 15:02 48.46348 10.28864 24337 ft 416 kts 93°
2026-05-05 15:02 48.46346 10.33222 23779 ft 413 kts 94°
2026-05-05 15:02 48.46343 10.37523 23221 ft 410 kts 94°
2026-05-05 15:03 48.46337 10.41814 22669 ft 407 kts 94°
2026-05-05 15:03 48.46331 10.46053 22110 ft 404 kts 93°
2026-05-05 15:03 48.46325 10.50192 21577 ft 401 kts 93°
2026-05-05 15:03 48.46316 10.54405 21029 ft 398 kts 93°
2026-05-05 15:04 48.46306 10.58560 20487 ft 395 kts 93°
2026-05-05 15:04 48.46426 10.62655 19953 ft 395 kts 87°
2026-05-05 15:04 48.46766 10.66797 19425 ft 392 kts 85°
2026-05-05 15:04 48.47151 10.70857 18888 ft 389 kts 85°
2026-05-05 15:05 48.47862 10.78530 17875 ft 383 kts 85°
2026-05-05 15:05 48.48207 10.82482 17345 ft 380 kts 85°
2026-05-05 15:05 48.48540 10.86379 16828 ft 378 kts 85°
2026-05-05 15:06 48.48869 10.90298 16304 ft 375 kts 85°
2026-05-05 15:06 48.49190 10.94100 15787 ft 373 kts 85°
2026-05-05 15:06 48.49510 10.97974 15270 ft 370 kts 86°
2026-05-05 15:06 48.49827 11.01813 14752 ft 367 kts 86°
2026-05-05 15:07 48.50138 11.05577 14238 ft 365 kts 85°
2026-05-05 15:07 48.50446 11.09337 13738 ft 362 kts 85°
2026-05-05 15:07 48.50758 11.13087 13221 ft 360 kts 85°
2026-05-05 15:07 48.51066 11.16815 12949 ft 349 kts 85°
2026-05-05 15:08 48.51373 11.20328 12769 ft 339 kts 83°
2026-05-05 15:08 48.51818 11.23793 12598 ft 335 kts 81°
2026-05-05 15:08 48.52329 11.27258 12442 ft 343 kts 80°
2026-05-05 15:08 48.52859 11.30784 12270 ft 348 kts 80°
2026-05-05 15:09 48.53389 11.34345 12076 ft 348 kts 80°
2026-05-05 15:09 48.53907 11.37877 11902 ft 346 kts 80°
2026-05-05 15:09 48.54423 11.41442 11717 ft 345 kts 80°
2026-05-05 15:09 48.54928 11.44971 11535 ft 344 kts 80°
2026-05-05 15:10 48.55430 11.48489 11352 ft 343 kts 80°
2026-05-05 15:10 48.55929 11.52002 11179 ft 342 kts 80°
2026-05-05 15:10 48.56417 11.55454 11013 ft 341 kts 80°
2026-05-05 15:10 48.56889 11.58888 10841 ft 339 kts 83°
2026-05-05 15:11 48.56888 11.62396 10657 ft 335 kts 99°
2026-05-05 15:11 48.56550 11.65877 10513 ft 334 kts 101°
2026-05-05 15:11 48.56195 11.69272 10333 ft 329 kts 101°
2026-05-05 15:11 48.55846 11.72617 10161 ft 319 kts 101°
2026-05-05 15:12 48.55517 11.75840 9991 ft 309 kts 100°
2026-05-05 15:12 48.55200 11.78991 9832 ft 300 kts 100°
2026-05-05 15:12 48.54895 11.82066 9767 ft 288 kts 100°
2026-05-05 15:12 48.54603 11.85029 9558 ft 283 kts 100°
2026-05-05 15:13 48.54318 11.87938 9419 ft 278 kts 99°
2026-05-05 15:13 48.54038 11.90776 9277 ft 276 kts 99°
2026-05-05 15:13 48.53758 11.93617 9138 ft 277 kts 99°
2026-05-05 15:13 48.53472 11.96528 8994 ft 277 kts 98°
2026-05-05 15:14 48.53196 11.99328 8854 ft 277 kts 98°
2026-05-05 15:14 48.52922 12.02102 8763 ft 277 kts 97°
2026-05-05 15:14 48.52641 12.04967 8720 ft 274 kts 98°
2026-05-05 15:14 48.52361 12.07796 8627 ft 273 kts 98°
2026-05-05 15:15 48.52078 12.10639 8502 ft 275 kts 98°
2026-05-05 15:15 48.51794 12.13487 8372 ft 275 kts 98°
2026-05-05 15:15 48.51509 12.16349 8232 ft 276 kts 98°
2026-05-05 15:15 48.51222 12.19216 8091 ft 277 kts 98°
2026-05-05 15:16 48.50932 12.22098 7952 ft 278 kts 98°
2026-05-05 15:16 48.50644 12.24977 7813 ft 278 kts 98°
2026-05-05 15:16 48.50355 12.27852 7665 ft 276 kts 98°
2026-05-05 15:16 48.50069 12.30690 7511 ft 272 kts 98°
2026-05-05 15:17 48.49785 12.33485 7380 ft 268 kts 98°
2026-05-05 15:17 48.49502 12.36267 7251 ft 269 kts 98°
2026-05-05 15:17 48.49173 12.38979 7111 ft 269 kts 108°
2026-05-05 15:17 48.48157 12.41295 6966 ft 268 kts 141°
2026-05-05 15:18 48.46513 12.42530 6862 ft 266 kts 169°
2026-05-05 15:18 48.44696 12.42486 6715 ft 265 kts 196°
2026-05-05 15:18 48.43086 12.41185 6590 ft 264 kts 224°
2026-05-05 15:18 48.42058 12.38943 6452 ft 263 kts 249°
2026-05-05 15:19 48.41626 12.36283 6338 ft 263 kts 260°
2026-05-05 15:19 48.41339 12.33575 6196 ft 264 kts 261°
2026-05-05 15:19 48.41062 12.30851 6058 ft 264 kts 261°
2026-05-05 15:19 48.40783 12.28145 5909 ft 258 kts 261°
2026-05-05 15:20 48.40507 12.25520 5771 ft 251 kts 261°
2026-05-05 15:20 48.40237 12.22994 5643 ft 244 kts 261°
2026-05-05 15:20 48.39967 12.20503 5525 ft 238 kts 261°
2026-05-05 15:20 48.39702 12.18079 5406 ft 231 kts 261°
2026-05-05 15:21 48.39431 12.15808 5299 ft 224 kts 260°
2026-05-05 15:21 48.39193 12.13535 5233 ft 216 kts 262°
2026-05-05 15:21 48.38999 12.11315 5186 ft 213 kts 263°
2026-05-05 15:21 48.38821 12.09133 4956 ft 209 kts 263°
2026-05-05 15:22 48.38650 12.06991 4688 ft 201 kts 263°
2026-05-05 15:22 48.38487 12.04957 4426 ft 189 kts 263°
2026-05-05 15:22 48.38337 12.03074 4197 ft 178 kts 263°
2026-05-05 15:22 48.38196 12.01289 3973 ft 164 kts 263°
2026-05-05 15:23 48.38067 11.99668 3763 ft 149 kts 263°
2026-05-05 15:23 48.37951 11.98207 3554 ft 136 kts 263°
2026-05-05 15:23 48.37841 11.96801 3381 ft 135 kts 263°
2026-05-05 15:23 48.37731 11.95409 3204 ft 136 kts 263°
2026-05-05 15:24 48.37620 11.94035 3027 ft 135 kts 263°
2026-05-05 15:24 48.37515 11.92676 2852 ft 135 kts 263°
2026-05-05 15:24 48.37406 11.91279 2674 ft 134 kts 263°
2026-05-05 15:24 48.37301 11.89890 2496 ft 133 kts 264°
2026-05-05 15:25 48.37198 11.88502 2316 ft 133 kts 263°
2026-05-05 15:25 48.37076 11.87131 2161 ft 133 kts 262°
2026-05-05 15:25 48.36960 11.85754 2022 ft 133 kts 264°
2026-05-05 15:25 48.36859 11.84348 1849 ft 137 kts 263°
2026-05-05 15:26 48.36748 11.82952 1668 ft 135 kts 263°
2026-05-05 15:26 48.36637 11.81592 1516 ft 129 kts 263°
2026-05-05 15:26 48.36547 11.80362 1484 ft 109 kts 265°
2026-05-05 15:26 48.36476 11.79340 1478 ft 89 kts 263°
2026-05-05 15:27 48.36413 11.78546 1481 ft 59 kts 264°
2026-05-05 15:27 48.36337 11.78097 1482 ft 34 kts 237°
2026-05-05 15:27 48.36225 11.77862 1484 ft 12 kts 233°
2026-05-05 15:27 48.36178 11.77766 1474 ft 11 kts 233°
2026-05-05 15:28 48.36125 11.77681 1474 ft 11 kts 208°
2026-05-05 15:28 48.36052 11.77661 1478 ft 11 kts 177°
2026-05-05 15:28 48.35984 11.77668 1484 ft 0 kts 176°
2026-05-05 15:29 48.35091 11.77728 1472 ft 0 kts 263°